Location: Newark
(50.4375°N, 16.6489°E)
Time: 00:47:44
(UTC+00:00)

Envisat - Pass Details

Date: 24 September 2019
Orbit: 764 x 766 km, 98.1° (Epoch: 15 October)

Event Time Altitude Azimuth Distance (km) Brightness Sun altitude
Rises 18:36:43 0° 221° (SW) 3,224 6.5 -17.8°
Reaches altitude 10° 18:40:31 10° 251° (WSW) 2,305 6.1 -18.3°
Maximum altitude 18:42:37 12° 275° (W) 2,139 6.4 -18.6°
Drops below altitude 10° 18:44:44 10° 300° (WNW) 2,312 6.7 -18.9°
Sets 18:48:34 0° 330° (NNW) 3,245 7.1 -19.5°
